CEB425 RPLC-RPVM

Flight info

Callsign CEB425
Flight time 1h 2m
Altitude 35000
Route OLIVA2E OLIVA W16 MIA B462 IPATA W25 BATAY BATAY3P
Aircraft A21N/M-SDE2E3FGHIRWXY/LB1

Departure

Time 2026-04-29 06:23
Airport Clark International Airport / Clark Air Base (RPLC)

Arrival

Time 2026-04-29 07:25
Airport Mactan Cebu International Airport (RPVM)
Time Latitude Longitude Altitude Speed Heading
2026-04-29 05:46 15.19520 120.56007 471 ft 0 kts 290°
2026-04-29 06:01 15.19515 120.56020 471 ft 2 kts 300°
2026-04-29 06:01 15.19512 120.56024 471 ft 2 kts 298°
2026-04-29 06:01 15.19507 120.56036 471 ft 2 kts 295°
2026-04-29 06:01 15.19500 120.56049 471 ft 2 kts 296°
2026-04-29 06:02 15.19494 120.56062 471 ft 1 kts 296°
2026-04-29 06:02 15.19491 120.56068 471 ft 0 kts 266°
2026-04-29 06:02 15.19494 120.56074 471 ft 1 kts 209°
2026-04-29 06:02 15.19499 120.56076 471 ft 0 kts 166°
2026-04-29 06:03 15.19490 120.56075 471 ft 4 kts 180°
2026-04-29 06:03 15.19457 120.56067 471 ft 4 kts 201°
2026-04-29 06:03 15.19444 120.56062 471 ft 0 kts 201°
2026-04-29 06:11 15.19442 120.56062 471 ft 0 kts 201°
2026-04-29 06:11 15.19433 120.56058 471 ft 1 kts 201°
2026-04-29 06:11 15.19417 120.56052 471 ft 2 kts 201°
2026-04-29 06:11 15.19396 120.56042 471 ft 3 kts 202°
2026-04-29 06:12 15.19369 120.56032 471 ft 4 kts 201°
2026-04-29 06:12 15.19336 120.56018 471 ft 5 kts 201°
2026-04-29 06:12 15.19296 120.56002 471 ft 6 kts 201°
2026-04-29 06:12 15.19251 120.55984 471 ft 7 kts 201°
2026-04-29 06:13 15.19200 120.55965 471 ft 8 kts 200°
2026-04-29 06:13 15.19156 120.55959 471 ft 5 kts 159°
2026-04-29 06:13 15.19130 120.55991 471 ft 6 kts 114°
2026-04-29 06:13 15.19097 120.56016 471 ft 6 kts 184°
2026-04-29 06:14 15.19051 120.55998 471 ft 7 kts 203°
2026-04-29 06:14 15.19009 120.55981 471 ft 5 kts 201°
2026-04-29 06:14 15.18969 120.55965 471 ft 6 kts 201°
2026-04-29 06:14 15.18924 120.55946 471 ft 7 kts 201°
2026-04-29 06:15 15.18873 120.55926 471 ft 8 kts 201°
2026-04-29 06:15 15.18816 120.55904 471 ft 9 kts 200°
2026-04-29 06:15 15.18755 120.55881 471 ft 9 kts 200°
2026-04-29 06:15 15.18687 120.55855 471 ft 10 kts 201°
2026-04-29 06:16 15.18617 120.55826 471 ft 11 kts 202°
2026-04-29 06:16 15.18545 120.55797 471 ft 11 kts 201°
2026-04-29 06:16 15.18471 120.55768 471 ft 11 kts 200°
2026-04-29 06:16 15.18394 120.55737 471 ft 12 kts 201°
2026-04-29 06:17 15.18314 120.55706 471 ft 12 kts 201°
2026-04-29 06:17 15.18233 120.55675 471 ft 12 kts 201°
2026-04-29 06:17 15.18149 120.55640 470 ft 13 kts 201°
2026-04-29 06:17 15.18062 120.55606 470 ft 13 kts 200°
2026-04-29 06:18 15.17974 120.55571 470 ft 13 kts 201°
2026-04-29 06:18 15.17885 120.55536 470 ft 13 kts 201°
2026-04-29 06:18 15.17794 120.55500 470 ft 14 kts 201°
2026-04-29 06:18 15.17703 120.55464 470 ft 10 kts 201°
2026-04-29 06:19 15.17661 120.55447 470 ft 4 kts 196°
2026-04-29 06:19 15.17627 120.55454 470 ft 5 kts 146°
2026-04-29 06:19 15.17602 120.55489 470 ft 6 kts 117°
2026-04-29 06:19 15.17580 120.55531 470 ft 7 kts 120°
2026-04-29 06:20 15.17554 120.55579 470 ft 7 kts 119°
2026-04-29 06:20 15.17526 120.55631 470 ft 8 kts 118°
2026-04-29 06:20 15.17496 120.55689 470 ft 9 kts 118°
2026-04-29 06:20 15.17467 120.55746 470 ft 5 kts 117°
2026-04-29 06:21 15.17454 120.55772 470 ft 3 kts 114°
2026-04-29 06:21 15.17462 120.55792 470 ft 3 kts 37°
2026-04-29 06:21 15.17472 120.55798 470 ft 0 kts 24°
2026-04-29 06:22 15.17487 120.55804 470 ft 18 kts 24°
2026-04-29 06:22 15.17852 120.55950 470 ft 91 kts 21°
2026-04-29 06:22 15.18649 120.56265 471 ft 150 kts 21°
2026-04-29 06:22 15.19738 120.56693 720 ft 173 kts 21°
2026-04-29 06:23 15.20833 120.57101 1371 ft 167 kts 21°
2026-04-29 06:23 15.21929 120.57542 1944 ft 170 kts 23°
2026-04-29 06:23 15.23033 120.57999 2411 ft 173 kts 23°
2026-04-29 06:23 15.24193 120.58476 2673 ft 187 kts 23°
2026-04-29 06:24 15.25406 120.59078 2932 ft 200 kts 39°
2026-04-29 06:24 15.26153 120.60313 3185 ft 213 kts 76°
2026-04-29 06:24 15.26122 120.61882 3419 ft 230 kts 107°
2026-04-29 06:24 15.25209 120.63307 3637 ft 251 kts 141°
2026-04-29 06:25 15.23527 120.63979 3918 ft 270 kts 177°
2026-04-29 06:25 15.21639 120.63689 4410 ft 279 kts 192°
2026-04-29 06:25 15.19750 120.63229 5055 ft 282 kts 192°
2026-04-29 06:25 15.17821 120.62763 5766 ft 283 kts 192°
2026-04-29 06:26 15.15906 120.62296 6439 ft 285 kts 192°
2026-04-29 06:26 15.13973 120.61831 7131 ft 286 kts 192°
2026-04-29 06:26 15.12006 120.61449 7770 ft 288 kts 181°
2026-04-29 06:26 15.10069 120.61799 8361 ft 289 kts 155°
2026-04-29 06:27 15.08336 120.62851 9012 ft 289 kts 144°
2026-04-29 06:27 15.06687 120.64072 9616 ft 293 kts 143°
2026-04-29 06:27 15.05022 120.65289 10220 ft 296 kts 144°
2026-04-29 06:27 15.03293 120.66510 10584 ft 309 kts 145°
2026-04-29 06:28 15.01463 120.67780 10861 ft 324 kts 145°
2026-04-29 06:28 14.99540 120.69098 11178 ft 336 kts 145°
2026-04-29 06:28 14.97568 120.70443 11682 ft 340 kts 146°
2026-04-29 06:28 14.95591 120.71788 12261 ft 341 kts 146°
2026-04-29 06:29 14.93597 120.73142 12810 ft 344 kts 146°
2026-04-29 06:29 14.91581 120.74513 13336 ft 347 kts 146°
2026-04-29 06:29 14.89555 120.75889 13837 ft 350 kts 146°
2026-04-29 06:29 14.87518 120.77272 14346 ft 352 kts 146°
2026-04-29 06:30 14.85458 120.78670 14852 ft 354 kts 146°
2026-04-29 06:30 14.81309 120.81489 15834 ft 359 kts 146°
2026-04-29 06:30 14.79240 120.82894 16293 ft 362 kts 145°
2026-04-29 06:31 14.77120 120.84334 16753 ft 364 kts 146°
2026-04-29 06:31 14.74989 120.85781 17192 ft 367 kts 146°
2026-04-29 06:31 14.72846 120.87234 17612 ft 369 kts 146°
2026-04-29 06:31 14.70685 120.88699 18049 ft 372 kts 146°
2026-04-29 06:32 14.68512 120.90170 18462 ft 374 kts 146°
2026-04-29 06:32 14.66322 120.91653 18853 ft 377 kts 146°
2026-04-29 06:32 14.64130 120.93140 19253 ft 380 kts 146°
2026-04-29 06:32 14.61905 120.94647 19639 ft 382 kts 145°
2026-04-29 06:33 14.59661 120.96168 20031 ft 384 kts 146°
2026-04-29 06:33 14.57434 120.97678 20402 ft 387 kts 146°
2026-04-29 06:33 14.55175 120.99206 20776 ft 389 kts 146°
2026-04-29 06:33 14.52907 121.00780 21150 ft 390 kts 143°
2026-04-29 06:34 14.50797 121.02542 21514 ft 391 kts 137°
2026-04-29 06:34 14.48879 121.04527 21876 ft 392 kts 131°
2026-04-29 06:34 14.47107 121.06665 22218 ft 394 kts 129°
2026-04-29 06:34 14.45351 121.08854 22538 ft 397 kts 129°
2026-04-29 06:35 14.43577 121.11070 22854 ft 400 kts 129°
2026-04-29 06:35 14.41819 121.13258 23169 ft 402 kts 129°
2026-04-29 06:35 14.40017 121.15498 23494 ft 404 kts 129°
2026-04-29 06:35 14.38223 121.17723 23788 ft 407 kts 129°
2026-04-29 06:36 14.36396 121.19984 24065 ft 410 kts 130°
2026-04-29 06:36 14.34560 121.22253 24338 ft 413 kts 129°
2026-04-29 06:36 14.32703 121.24549 24640 ft 416 kts 130°
2026-04-29 06:36 14.30864 121.26818 24944 ft 418 kts 130°
2026-04-29 06:37 14.28994 121.29126 25246 ft 419 kts 130°
2026-04-29 06:37 14.27115 121.31443 25545 ft 421 kts 130°
2026-04-29 06:37 14.25231 121.33769 25838 ft 423 kts 130°
2026-04-29 06:37 14.23341 121.36102 26112 ft 425 kts 130°
2026-04-29 06:38 14.21439 121.38450 26387 ft 427 kts 130°
2026-04-29 06:38 14.19539 121.40797 26651 ft 429 kts 130°
2026-04-29 06:38 14.17608 121.43175 26914 ft 431 kts 130°
2026-04-29 06:38 14.15676 121.45558 27170 ft 434 kts 130°
2026-04-29 06:39 14.13757 121.47921 27428 ft 436 kts 130°
2026-04-29 06:39 14.11789 121.50343 27674 ft 438 kts 130°
2026-04-29 06:39 14.09825 121.52757 27935 ft 440 kts 130°
2026-04-29 06:39 14.07869 121.55167 28188 ft 442 kts 130°
2026-04-29 06:40 14.05899 121.57591 28437 ft 444 kts 130°
2026-04-29 06:40 14.03915 121.60032 28717 ft 445 kts 131°
2026-04-29 06:40 14.01929 121.62473 28999 ft 446 kts 131°
2026-04-29 06:40 13.99917 121.64950 29272 ft 448 kts 131°
2026-04-29 06:41 13.97914 121.67413 29526 ft 450 kts 131°
2026-04-29 06:41 13.95917 121.69868 29781 ft 451 kts 131°
2026-04-29 06:41 13.93895 121.72354 30033 ft 453 kts 131°
2026-04-29 06:41 13.91870 121.74841 30303 ft 454 kts 131°
2026-04-29 06:42 13.89801 121.77338 30559 ft 455 kts 133°
2026-04-29 06:42 13.87631 121.79708 30807 ft 456 kts 136°
2026-04-29 06:42 13.85349 121.81934 31051 ft 457 kts 139°
2026-04-29 06:42 13.82908 121.84057 31302 ft 457 kts 143°
2026-04-29 06:43 13.80390 121.86018 31618 ft 456 kts 145°
2026-04-29 06:43 13.77821 121.87955 32009 ft 454 kts 145°
2026-04-29 06:43 13.75289 121.89860 32407 ft 451 kts 145°
2026-04-29 06:43 13.72757 121.91763 32796 ft 449 kts 145°
2026-04-29 06:44 13.70251 121.93647 33172 ft 448 kts 145°
2026-04-29 06:44 13.67730 121.95544 33496 ft 449 kts 144°
2026-04-29 06:44 13.65208 121.97444 33760 ft 450 kts 145°
2026-04-29 06:44 13.62677 121.99351 33993 ft 452 kts 144°
2026-04-29 06:45 13.60105 122.01287 34238 ft 453 kts 144°
2026-04-29 06:45 13.57565 122.03200 34483 ft 454 kts 144°
2026-04-29 06:45 13.55029 122.05109 34726 ft 456 kts 144°
2026-04-29 06:45 13.52465 122.07040 34887 ft 457 kts 144°
2026-04-29 06:46 13.49887 122.08979 34888 ft 457 kts 144°
2026-04-29 06:46 13.44751 122.12843 34896 ft 457 kts 144°
2026-04-29 06:47 13.39636 122.16691 34898 ft 455 kts 144°
2026-04-29 06:47 13.34517 122.20537 34897 ft 455 kts 144°
2026-04-29 06:48 13.29399 122.24381 34892 ft 456 kts 144°
2026-04-29 06:48 13.24289 122.28218 34888 ft 456 kts 144°
2026-04-29 06:49 13.19138 122.32082 34884 ft 456 kts 144°
2026-04-29 06:49 13.14026 122.35915 34888 ft 456 kts 144°
2026-04-29 06:50 13.08879 122.39772 34884 ft 455 kts 144°
2026-04-29 06:50 13.03784 122.43588 34887 ft 456 kts 144°
2026-04-29 06:51 12.98636 122.47444 34885 ft 456 kts 143°
2026-04-29 06:51 12.93539 122.51259 34885 ft 456 kts 144°
2026-04-29 06:52 12.88392 122.55110 34887 ft 456 kts 144°
2026-04-29 06:52 12.83262 122.58944 34885 ft 456 kts 143°
2026-04-29 06:53 12.78123 122.62781 34885 ft 455 kts 143°
2026-04-29 06:53 12.72985 122.66619 34886 ft 456 kts 144°
2026-04-29 06:54 12.67880 122.70431 34886 ft 456 kts 144°
2026-04-29 06:54 12.62739 122.74267 34883 ft 456 kts 143°
2026-04-29 06:55 12.57597 122.78100 34879 ft 456 kts 143°
2026-04-29 06:55 12.52437 122.81947 34874 ft 456 kts 143°
2026-04-29 06:56 12.47313 122.85764 34869 ft 456 kts 143°
2026-04-29 06:56 12.42171 122.89596 34867 ft 456 kts 143°
2026-04-29 06:57 12.37053 122.93409 34865 ft 455 kts 143°
2026-04-29 06:57 12.31944 122.97209 34866 ft 456 kts 143°
2026-04-29 06:58 12.26772 123.01047 34866 ft 457 kts 143°
2026-04-29 06:58 12.21655 123.04844 34867 ft 457 kts 143°
2026-04-29 06:59 12.16492 123.08677 34868 ft 457 kts 143°
2026-04-29 06:59 12.11361 123.12483 34870 ft 456 kts 143°
2026-04-29 07:00 12.06216 123.16302 34870 ft 456 kts 143°
2026-04-29 07:00 12.01056 123.20128 34870 ft 456 kts 143°
2026-04-29 07:01 11.95917 123.23936 34870 ft 456 kts 143°
2026-04-29 07:01 11.90791 123.27734 34869 ft 456 kts 143°
2026-04-29 07:02 11.85652 123.31539 34868 ft 456 kts 143°
2026-04-29 07:02 11.80496 123.35356 34867 ft 455 kts 143°
2026-04-29 07:03 11.75368 123.39150 34866 ft 454 kts 143°
2026-04-29 07:03 11.70264 123.42924 34748 ft 452 kts 143°
2026-04-29 07:03 11.67711 123.44811 34059 ft 455 kts 143°
2026-04-29 07:04 11.65155 123.46700 32960 ft 461 kts 143°
2026-04-29 07:04 11.62521 123.48646 31848 ft 468 kts 143°
2026-04-29 07:04 11.59872 123.50601 30879 ft 472 kts 143°
2026-04-29 07:04 11.57243 123.52541 30278 ft 467 kts 143°
2026-04-29 07:05 11.54603 123.54490 29729 ft 462 kts 143°
2026-04-29 07:05 11.52026 123.56392 29206 ft 457 kts 143°
2026-04-29 07:05 11.49476 123.58273 28691 ft 452 kts 143°
2026-04-29 07:05 11.46932 123.60152 28184 ft 447 kts 143°
2026-04-29 07:06 11.44434 123.61995 27684 ft 442 kts 143°
2026-04-29 07:06 11.41955 123.63824 27182 ft 438 kts 143°
2026-04-29 07:06 11.39481 123.65649 26678 ft 434 kts 143°
2026-04-29 07:06 11.37062 123.67433 26185 ft 430 kts 143°
2026-04-29 07:07 11.34617 123.69237 25684 ft 427 kts 143°
2026-04-29 07:07 11.32237 123.70992 25197 ft 423 kts 143°
2026-04-29 07:07 11.29878 123.72730 24708 ft 419 kts 143°
2026-04-29 07:07 11.27507 123.74476 24207 ft 416 kts 142°
2026-04-29 07:08 11.25168 123.76202 23712 ft 413 kts 142°
2026-04-29 07:08 11.22856 123.77905 23220 ft 410 kts 142°
2026-04-29 07:08 11.20576 123.79586 22739 ft 407 kts 142°
2026-04-29 07:08 11.18269 123.81285 22250 ft 404 kts 142°
2026-04-29 07:09 11.15978 123.82912 21768 ft 402 kts 148°
2026-04-29 07:09 11.13354 123.83868 21260 ft 403 kts 171°
2026-04-29 07:09 11.10562 123.83734 20786 ft 403 kts 191°
2026-04-29 07:09 11.07857 123.82967 20341 ft 400 kts 194°
2026-04-29 07:10 11.05178 123.82178 19879 ft 397 kts 194°
2026-04-29 07:10 11.02533 123.81411 19420 ft 395 kts 194°
2026-04-29 07:10 10.99884 123.80656 18959 ft 392 kts 194°
2026-04-29 07:10 10.97278 123.79919 18487 ft 390 kts 193°
2026-04-29 07:11 10.94671 123.79188 18018 ft 388 kts 193°
2026-04-29 07:11 10.92038 123.78451 17555 ft 386 kts 193°
2026-04-29 07:11 10.89470 123.77734 17092 ft 383 kts 193°
2026-04-29 07:11 10.86901 123.77018 16618 ft 382 kts 193°
2026-04-29 07:12 10.84341 123.76305 16131 ft 380 kts 193°
2026-04-29 07:12 10.81772 123.75588 15634 ft 379 kts 193°
2026-04-29 07:12 10.79222 123.74878 15139 ft 378 kts 193°
2026-04-29 07:12 10.76704 123.74177 14655 ft 377 kts 194°
2026-04-29 07:13 10.74160 123.73468 14159 ft 375 kts 194°
2026-04-29 07:13 10.71657 123.72770 13679 ft 374 kts 194°
2026-04-29 07:13 10.69127 123.72064 13189 ft 372 kts 194°
2026-04-29 07:13 10.66637 123.71370 12705 ft 371 kts 194°
2026-04-29 07:14 10.64146 123.70676 12226 ft 369 kts 194°
2026-04-29 07:14 10.61663 123.69984 11753 ft 367 kts 194°
2026-04-29 07:14 10.59213 123.69302 11294 ft 365 kts 194°
2026-04-29 07:14 10.56770 123.68622 10840 ft 363 kts 194°
2026-04-29 07:15 10.54340 123.67945 10418 ft 359 kts 194°
2026-04-29 07:15 10.51932 123.67274 10200 ft 349 kts 194°
2026-04-29 07:15 10.49651 123.66638 10082 ft 336 kts 194°
2026-04-29 07:15 10.47412 123.66014 9925 ft 324 kts 194°
2026-04-29 07:16 10.45272 123.65418 9661 ft 318 kts 194°
2026-04-29 07:16 10.43146 123.64826 9352 ft 313 kts 194°
2026-04-29 07:16 10.41008 123.64232 8890 ft 315 kts 194°
2026-04-29 07:16 10.38902 123.63646 8552 ft 311 kts 194°
2026-04-29 07:17 10.36807 123.63065 8146 ft 311 kts 193°
2026-04-29 07:17 10.34675 123.62884 7709 ft 305 kts 167°
2026-04-29 07:17 10.32818 123.63746 7391 ft 292 kts 137°
2026-04-29 07:17 10.31401 123.65199 7016 ft 288 kts 129°
2026-04-29 07:18 10.30080 123.66703 6618 ft 287 kts 128°
2026-04-29 07:18 10.28720 123.68215 6241 ft 286 kts 130°
2026-04-29 07:18 10.27356 123.69668 5882 ft 284 kts 131°
2026-04-29 07:18 10.25970 123.71104 5524 ft 282 kts 131°
2026-04-29 07:19 10.24593 123.72516 5174 ft 280 kts 132°
2026-04-29 07:19 10.23205 123.73928 4822 ft 278 kts 132°
2026-04-29 07:19 10.21852 123.75304 4480 ft 276 kts 132°
2026-04-29 07:19 10.20500 123.76678 4132 ft 274 kts 132°
2026-04-29 07:20 10.19150 123.78050 3783 ft 272 kts 133°
2026-04-29 07:20 10.17828 123.79391 3478 ft 268 kts 132°
2026-04-29 07:20 10.16546 123.80733 3413 ft 253 kts 126°
2026-04-29 07:20 10.15902 123.82281 3302 ft 234 kts 90°
2026-04-29 07:21 10.16350 123.83800 3209 ft 228 kts 52°
2026-04-29 07:21 10.17479 123.84915 3078 ft 228 kts 40°
2026-04-29 07:21 10.18688 123.85934 2926 ft 220 kts 42°
2026-04-29 07:21 10.19809 123.86963 2710 ft 215 kts 44°
2026-04-29 07:22 10.20759 123.87897 2455 ft 214 kts 45°
2026-04-29 07:22 10.21808 123.88959 2199 ft 203 kts 45°
2026-04-29 07:22 10.22775 123.89939 1914 ft 190 kts 45°
2026-04-29 07:22 10.23686 123.90857 1641 ft 178 kts 45°
2026-04-29 07:23 10.24537 123.91712 1418 ft 166 kts 45°
2026-04-29 07:23 10.25324 123.92503 1210 ft 154 kts 44°
2026-04-29 07:23 10.26071 123.93254 1032 ft 148 kts 44°
2026-04-29 07:23 10.26790 123.93979 817 ft 142 kts 44°
2026-04-29 07:24 10.27471 123.94666 637 ft 136 kts 45°
2026-04-29 07:24 10.28154 123.95351 447 ft 135 kts 44°
2026-04-29 07:24 10.28825 123.96008 301 ft 135 kts 45°
2026-04-29 07:24 10.29496 123.96672 131 ft 134 kts 46°
2026-04-29 07:25 10.30147 123.97338 37 ft 120 kts 45°
2026-04-29 07:25 10.30626 123.97813 36 ft 72 kts 44°
2026-04-29 07:25 10.30929 123.98118 36 ft 55 kts 45°
2026-04-29 07:25 10.31181 123.98311 36 ft 31 kts 22°
2026-04-29 07:26 10.31328 123.98350 36 ft 12 kts 354°
2026-04-29 07:26 10.31404 123.98312 36 ft 12 kts 315°
2026-04-29 07:26 10.31467 123.98248 36 ft 12 kts 315°
2026-04-29 07:26 10.31526 123.98188 36 ft 11 kts 314°
2026-04-29 07:27 10.31562 123.98146 36 ft 6 kts 297°
2026-04-29 07:27 10.31560 123.98101 36 ft 7 kts 241°
2026-04-29 07:27 10.31528 123.98066 36 ft 7 kts 224°
2026-04-29 07:27 10.31506 123.98042 36 ft 3 kts 242°
2026-04-29 07:28 10.31511 123.98017 36 ft 4 kts 308°
2026-04-29 07:28 10.31533 123.97995 36 ft 4 kts 313°
2026-04-29 07:28 10.31546 123.97980 36 ft 0 kts 313°
2026-04-29 07:28 10.31548 123.97979 36 ft 0 kts 313°